Home > Weather > Nãgpur > Past weeks

Flag for India Past Weather in Nãgpur, Maharashtra, India — Yesterday and Last 2 Weeks

Now
82 °F

Scattered clouds.


Feels Like: 89 °F
Forecast: 76 / 88 °F
Wind: 5 mph from West

Location: Nagpur Sonegaon

Current Time: Jul 29, 2016 at 9:34:02 AM

Latest Report: Jul 29, 2016 at 9:00 AM


Visibility: 2 mi

Pressure: 29.74 "Hg

Humidity: 79%

Dew Point: 75 °F

Location of NãgpurLocation

Past Weather in Nãgpur — Graph

°F

Nãgpur Temperature Yesterday

Maximum temperature yesterday: 91 °F (at 4:00 PM)
Minimum temperature yesterday: 77 °F (at 1:00 AM)
Average temperature yesterday: 83 °F

High & Low Weather Summary for the Past Weeks

 TemperatureHumidityPressure
High102 °F (Jul 15, 11:00 AM)100% (Jul 20, 11:30 PM)29.83 "Hg (Jul 20, 11:30 PM)
Low75 °F (Jul 19, 12:30 AM)40% (Jul 26, 1:00 PM)29.56 "Hg (Jul 14, 4:30 PM)
Average82 °F82%29.70 "Hg
* Reported Jul 14 7:36 AM — Jul 29 8:00 AM, Nãgpur, Weather by CustomWeather, © 2016

Note: Actual official high and low records may vary slightly from our data, if they occured in-between our weather recording intervals... More about our weather records

Advertising

Nãgpur Weather History for the Previous 24 Hours

Scroll right to see more
 ConditionsComfort  
Time TempWeatherWind HumidityBarometerVisibility
8:00 AM
Fri, Jul 29
81 °FScattered clouds.7 mph89%29.71 "Hg2 mi
7:30 AM79 °FBroken clouds.6 mph94%29.71 "Hg2 mi
7:00 AM79 °FBroken clouds.3 mph94%29.71 "Hg2 mi
6:30 AM79 °FScattered clouds.5 mph89%29.71 "Hg2 mi
6:00 AM79 °FPassing clouds.5 mph89%29.71 "Hg2 mi
5:00 AM79 °FPassing clouds.2 mph89%29.68 "Hg2 mi
4:30 AM79 °FPassing clouds.2 mph89%29.68 "Hg2 mi
2:30 AM79 °FHaze.2 mph89%29.68 "Hg2 mi
2:00 AM79 °FHaze.2 mph89%29.71 "Hg2 mi
1:30 AM79 °FPassing clouds.2 mph89%29.71 "Hg2 mi
12:30 AM81 °FPassing clouds.6 mph89%29.71 "Hg2 mi
11:30 PM
Thu, Jul 28
82 °FPassing clouds.2 mph84%29.74 "Hg2 mi
11:00 PM84 °FPassing clouds.No wind79%29.71 "Hg2 mi
10:00 PM84 °FPassing clouds.2 mph79%29.74 "Hg2 mi
9:30 PM84 °FPassing clouds.2 mph79%29.71 "Hg2 mi
9:00 PM84 °FPassing clouds.2 mph79%29.71 "Hg2 mi
8:30 PM84 °FPassing clouds.3 mph74%29.71 "Hg2 mi
8:00 PM84 °FPassing clouds.2 mph79%29.68 "Hg3 mi
7:30 PM86 °FPassing clouds.2 mph75%29.68 "Hg3 mi
6:30 PM88 °FScattered clouds.3 mph66%29.65 "Hg3 mi
5:30 PM88 °FScattered clouds.5 mph66%29.62 "Hg3 mi
5:00 PM90 °FScattered clouds.7 mph59%29.65 "Hg4 mi
4:00 PM91 °FScattered clouds.8 mph59%29.65 "Hg4 mi
3:30 PM90 °FScattered clouds.7 mph63%29.68 "Hg4 mi
2:30 PM88 °FScattered clouds.7 mph66%29.71 "Hg4 mi
2:00 PM88 °FScattered clouds.8 mph66%29.71 "Hg4 mi
1:30 PM88 °FScattered clouds.10 mph70%29.74 "Hg4 mi
1:00 PM88 °FScattered clouds.13 mph66%29.74 "Hg4 mi
12:30 PM88 °FScattered clouds.9 mph66%29.74 "Hg4 mi
12:00 PM86 °FScattered clouds.10 mph70%29.74 "Hg4 mi
10:30 AM82 °FScattered clouds.9 mph79%29.77 "Hg3 mi
10:00 AM82 °FBroken clouds.9 mph84%29.77 "Hg2 mi
9:30 AM81 °FBroken clouds.7 mph84%29.77 "Hg2 mi
Weather by CustomWeather, © 2016

See weather overviewHow to use our weather pages